| time (UTC) | temp F | wind direction | speed knots | gust knots | rain 1hr in | rain 24hr in | rain mn in | humidity % | barometer mb |
| 20260508194518 | 72 | 9 | 0.9 | 5.2 | 0.00 | 0.00 | 0.00 | 33 | 1014.3 |
| 20260508193016 | 72 | 315 | 0.9 | 4.3 | 0.00 | 0.00 | 0.00 | 33 | 1014.4 |
| 20260508191511 | 70 | 25 | 0.9 | 4.3 | 0.00 | 0.00 | 0.00 | 35 | 1014.5 |
| 20260508190009 | 71 | 23 | 1.7 | 4.3 | 0.00 | 0.00 | 0.00 | 35 | 1014.9 |
| 20260508184508 | 70 | 314 | 0.9 | 3.5 | 0.00 | 0.00 | 0.00 | 37 | 1015.1 |
| 20260508183005 | 69 | 14 | 1.7 | 4.3 | 0.00 | 0.00 | 0.00 | 38 | 1015.2 |
| 20260508181524 | 69 | 86 | 0.0 | 2.6 | 0.00 | 0.00 | 0.00 | 36 | 1015.4 |
| 20260508180020 | 69 | 29 | 1.7 | 5.2 | 0.00 | 0.00 | 0.00 | 39 | 1015.5 |
| 20260508174526 | 68 | 358 | 1.7 | 3.5 | 0.00 | 0.00 | 0.00 | 40 | 1015.9 |
| 20260508173016 | 68 | 348 | 1.7 | 3.5 | 0.00 | 0.00 | 0.00 | 40 | 1016.0 |
| 20260508171510 | 66 | 274 | 0.0 | 4.3 | 0.00 | 0.00 | 0.00 | 40 | 1016.4 |
| 20260508170004 | 67 | 335 | 0.9 | 4.3 | 0.00 | 0.00 | 0.00 | 37 | 1016.6 |
| 20260508164532 | 67 | 27 | 1.7 | 4.3 | 0.00 | 0.00 | 0.00 | 1017.0 | |
| 20260508163024 | 66 | 357 | 0.0 | 3.5 | 0.00 | 0.00 | 0.00 | 40 | 1017.2 |
| 20260508161521 | 66 | 280 | 0.9 | 3.5 | 0.00 | 0.00 | 0.00 | 40 | 1017.5 |
| 20260508160023 | 65 | 241 | 0.9 | 3.5 | 0.00 | 0.00 | 0.00 | 46 | 1017.7 |
| 20260508154516 | 64 | 80 | 0.9 | 3.5 | 0.00 | 0.00 | 0.00 | 43 | 1017.7 |
| 20260508153012 | 64 | 8 | 0.9 | 3.5 | 0.00 | 0.00 | 0.00 | 46 | 1017.9 |
| 20260508151509 | 62 | 216 | 0.0 | 2.6 | 0.00 | 0.00 | 0.00 | 48 | 1018.0 |
| 20260508150027 | 61 | 359 | 0.9 | 3.5 | 0.00 | 0.00 | 0.00 | 53 | 1018.1 |
| 20260508144522 | 60 | 288 | 0.0 | 2.6 | 0.00 | 0.01 | 0.00 | 59 | 1018.1 |
| 20260508143021 | 59 | 82 | 0.9 | 1.7 | 0.00 | 0.01 | 0.00 | 62 | 1018.2 |
| 20260508141520 | 59 | 108 | 1.7 | 2.6 | 0.00 | 0.01 | 0.00 | 61 | 1018.3 |
| 20260508140016 | 57 | 167 | 0.0 | 2.6 | 0.00 | 0.01 | 0.00 | 67 | 1018.4 |
| 20260508134516 | 56 | 106 | 0.0 | 2.6 | 0.00 | 0.01 | 0.00 | 70 | 1018.4 |
| 20260508133027 | 55 | 63 | 0.9 | 1.7 | 0.00 | 0.01 | 0.00 | 71 | 1018.3 |
| 20260508131524 | 54 | 110 | 0.9 | 2.6 | 0.00 | 0.01 | 0.00 | 74 | 1018.3 |
| 20260508130024 | 52 | 12 | 0.9 | 2.6 | 0.00 | 0.01 | 0.00 | 80 | 1018.2 |
| 20260508124523 | 51 | 57 | 0.9 | 2.6 | 0.00 | 0.01 | 0.00 | 82 | 1018.3 |
| 20260508123030 | 49 | 48 | 0.0 | 1.7 | 0.00 | 0.01 | 0.00 | 87 | 1018.2 |
| 20260508121530 | 47 | 36 | 0.9 | 1.7 | 0.00 | 0.01 | 0.00 | 92 | 1018.1 |
| 20260508120029 | 45 | 122 | 0.0 | 1.7 | 0.00 | 0.01 | 0.00 | 96 | 1017.9 |
| 20260508114528 | 44 | 40 | 0.9 | 1.7 | 0.00 | 0.01 | 0.00 | 95 | 1017.8 |
| 20260508113028 | 43 | 56 | 0.0 | 1.7 | 0.00 | 0.01 | 0.00 | 95 | 1017.6 |
| 20260508111525 | 43 | 127 | 0.0 | 1.7 | 0.00 | 0.04 | 0.00 | 94 | 1017.3 |
| 20260508110024 | 43 | 82 | 0.0 | 1.7 | 0.00 | 0.05 | 0.00 | 94 | 1017.2 |
| 20260508104541 | 44 | 14 | 0.0 | 1.7 | 0.00 | 0.05 | 0.00 | 94 | 1017.0 |
| 20260508103015 | 45 | 1 | 0.0 | 1.7 | 0.00 | 0.05 | 0.00 | 94 | 1016.9 |
| 20260508101516 | 45 | 10 | 0.0 | 1.7 | 0.00 | 0.05 | 0.00 | 95 | 1016.6 |
| 20260508100015 | 45 | 34 | 0.0 | 1.7 | 0.00 | 0.05 | 0.00 | 95 | 1016.5 |
| 20260508094514 | 46 | 10 | 0.0 | 1.7 | 0.00 | 0.05 | 0.00 | 95 | 1016.4 |
| 20260508093016 | 46 | 23 | 0.0 | 1.7 | 0.00 | 0.05 | 0.00 | 95 | 1016.4 |
| 20260508091517 | 46 | 13 | 0.0 | 1.7 | 0.00 | 0.05 | 0.00 | 95 | 1016.2 |
| 20260508090019 | 46 | 19 | 0.9 | 1.7 | 0.00 | 0.06 | 0.00 | 95 | 1016.3 |
| 20260508084516 | 47 | 28 | 0.9 | 1.7 | 0.00 | 0.08 | 0.00 | 95 | 1016.1 |
| 20260508083015 | 47 | 132 | 0.0 | 1.7 | 0.00 | 0.10 | 0.00 | 95 | 1016.1 |
| 20260508081513 | 47 | 111 | 0.0 | 1.7 | 0.00 | 0.11 | 0.00 | 96 | 1016.3 |
| 20260508080017 | 47 | 117 | 0.0 | 1.7 | 0.00 | 0.12 | 0.00 | 96 | 1016.2 |
| 20260508074520 | 46 | 96 | 0.0 | 0.0 | 0.00 | 0.12 | 0.00 | 96 | 1016.1 |
| 20260508073019 | 46 | 167 | 0.0 | 0.0 | 0.00 | 0.12 | 0.00 | 96 | 1016.2 |
| 20260508071520 | 45 | 167 | 0.0 | 0.0 | 0.00 | 0.12 | 0.00 | 95 | 1016.2 |
| 20260508070022 | 46 | 173 | 0.0 | 0.0 | 0.00 | 0.12 | 0.00 | 94 | 1016.1 |
| 20260508064518 | 46 | 173 | 0.0 | 0.0 | 0.00 | 0.13 | 0.00 | 95 | 1016.4 |
| 20260508063013 | 46 | 173 | 0.0 | 0.0 | 0.00 | 0.13 | 0.00 | 95 | 1016.4 |
| 20260508061509 | 46 | 173 | 0.0 | 0.0 | 0.00 | 0.14 | 0.00 | 95 | 1016.2 |
| 20260508060021 | 47 | 173 | 0.0 | 0.0 | 0.00 | 0.17 | 0.00 | 95 | 1016.3 |
| 20260508054523 | 47 | 173 | 0.0 | 0.0 | 0.00 | 0.20 | 0.00 | 95 | 1016.4 |
| 20260508053022 | 46 | 143 | 0.0 | 0.0 | 0.00 | 0.20 | 0.00 | 95 | 1016.5 |
| 20260508051518 | 46 | 143 | 0.0 | 0.0 | 0.00 | 0.20 | 0.00 | 95 | 1016.3 |
| 20260508050021 | 46 | 143 | 0.0 | 0.0 | 0.00 | 0.20 | 0.00 | 94 | 1016.3 |
| 20260508044513 | 47 | 143 | 0.0 | 0.0 | 0.00 | 0.20 | 0.00 | 94 | 1016.1 |
| 20260508043046 | 47 | 143 | 0.0 | 0.0 | 0.00 | 0.20 | 0.00 | 94 | 1015.9 |
| 20260508041525 | 48 | 143 | 0.0 | 0.0 | 0.00 | 0.20 | 0.00 | 94 | 1015.9 |
| 20260508040027 | 48 | 143 | 0.0 | 0.0 | 0.00 | 0.21 | 0.00 | 94 | 1015.7 |
| 20260508034523 | 48 | 143 | 0.0 | 0.0 | 0.00 | 0.21 | 0.21 | 94 | 1015.6 |
| 20260508033019 | 48 | 143 | 0.0 | 0.0 | 0.00 | 0.21 | 0.21 | 94 | 1015.5 |
| 20260508031522 | 48 | 143 | 0.0 | 0.0 | 0.00 | 0.21 | 0.21 | 94 | 1015.8 |
| 20260508030018 | 48 | 132 | 0.0 | 1.7 | 0.00 | 0.21 | 0.21 | 94 | 1015.5 |
| 20260508024531 | 48 | 146 | 0.0 | 1.7 | 0.00 | 0.21 | 0.21 | 94 | 1015.4 |
| 20260508023025 | 48 | 150 | 0.0 | 0.9 | 0.00 | 0.21 | 0.21 | 93 | 1015.3 |
| 20260508021524 | 48 | 179 | 0.0 | 1.7 | 0.00 | 0.21 | 0.21 | 93 | 1015.2 |
| 20260508020020 | 49 | 179 | 0.0 | 0.0 | 0.00 | 0.24 | 0.21 | 92 | 1015.2 |
| 20260508014518 | 49 | 180 | 0.0 | 0.0 | 0.00 | 0.32 | 0.21 | 92 | 1014.7 |
| 20260508013015 | 49 | 180 | 0.0 | 0.0 | 0.00 | 0.34 | 0.21 | 91 | 1014.6 |
| 20260508011524 | 50 | 180 | 0.0 | 0.0 | 0.00 | 0.35 | 0.21 | 90 | 1014.4 |
| 20260508010027 | 51 | 180 | 0.0 | 1.7 | 0.00 | 0.36 | 0.21 | 90 | 1014.1 |
| 20260508004527 | 51 | 180 | 0.0 | 1.7 | 0.00 | 0.38 | 0.21 | 88 | 1013.9 |
| 20260508003026 | 52 | 179 | 0.0 | 0.0 | 0.00 | 0.38 | 0.21 | 86 | 1013.7 |
| 20260508001524 | 54 | 179 | 0.0 | 0.0 | 0.00 | 0.38 | 0.21 | 84 | 1013.7 |
| 20260508000018 | 55 | 175 | 0.0 | 0.9 | 0.00 | 0.38 | 0.21 | 82 | 1013.8 |
| 20260507234535 | 56 | 169 | 0.0 | 1.7 | 0.00 | 0.38 | 0.21 | 79 | 1013.8 |
| 20260507233014 | 57 | 190 | 0.0 | 1.7 | 0.00 | 0.39 | 0.21 | 76 | 1013.9 |
| 20260507231516 | 59 | 229 | 0.0 | 1.7 | 0.00 | 0.40 | 0.21 | 71 | 1013.9 |
| 20260507230008 | 59 | 181 | 0.0 | 1.7 | 0.00 | 0.40 | 0.21 | 73 | 1013.9 |
| 20260507224504 | 58 | 295 | 0.9 | 2.6 | 0.00 | 0.40 | 0.21 | 73 | 1014.0 |
| 20260507223024 | 58 | 141 | 0.0 | 0.9 | 0.00 | 0.40 | 0.21 | 74 | 1013.9 |
| 20260507221520 | 58 | 319 | 0.0 | 1.7 | 0.00 | 0.40 | 0.21 | 72 | 1013.7 |
| 20260507220017 | 58 | 22 | 0.0 | 1.7 | 0.00 | 0.40 | 0.21 | 73 | 1013.7 |
| 20260507214515 | 57 | 172 | 0.9 | 1.7 | 0.00 | 0.40 | 0.21 | 75 | 1013.6 |
| 20260507213011 | 55 | 205 | 0.0 | 1.7 | 0.00 | 0.40 | 0.21 | 79 | 1013.4 |
| 20260507211506 | 55 | 281 | 0.0 | 1.7 | 0.00 | 0.40 | 0.21 | 81 | 1013.3 |
| 20260507210005 | 54 | 202 | 0.0 | 1.7 | 0.00 | 0.40 | 0.21 | 81 | 1013.3 |
| 20260507204523 | 54 | 293 | 0.9 | 2.6 | 0.00 | 0.40 | 0.21 | 81 | 1013.4 |
| 20260507203020 | 55 | 4 | 0.0 | 3.5 | 0.00 | 0.40 | 0.21 | 81 | 1013.4 |
| 20260507201518 | 55 | 344 | 0.9 | 2.6 | 0.00 | 0.40 | 0.21 | 80 | 1013.3 |
| 20260507200016 | 55 | 326 | 2.6 | 4.3 | 0.00 | 0.40 | 0.21 | 79 | 1013.3 |